UAL2027 KMSY-KIAH

Flight info

Callsign UAL2027
Flight time 0h 56m
Altitude 36000
Route JEPEG SOULL1
Aircraft A320/M-SDE3FGHIRWY/LB1

Departure

Time 2026-05-06 21:57
Airport Louis Armstrong New Orleans International Airport (KMSY)

Arrival

Time 2026-05-06 22:53
Airport George Bush Intercontinental Airport (KIAH)
Time Latitude Longitude Altitude Speed Heading
2026-05-06 21:27 29.99325 -90.25445 11 ft 0 kts 69°
2026-05-06 21:47 29.99323 -90.25449 12 ft 2 kts 70°
2026-05-06 21:47 29.99318 -90.25466 12 ft 2 kts 80°
2026-05-06 21:47 29.99319 -90.25483 12 ft 2 kts 107°
2026-05-06 21:48 29.99325 -90.25498 12 ft 2 kts 132°
2026-05-06 21:48 29.99337 -90.25509 12 ft 2 kts 157°
2026-05-06 21:48 29.99351 -90.25513 12 ft 1 kts 180°
2026-05-06 21:48 29.99357 -90.25512 12 ft 1 kts 186°
2026-05-06 21:49 29.99359 -90.25512 12 ft 0 kts 185°
2026-05-06 21:51 29.99351 -90.25513 11 ft 2 kts 185°
2026-05-06 21:51 29.99322 -90.25515 11 ft 5 kts 183°
2026-05-06 21:51 29.99274 -90.25517 11 ft 7 kts 183°
2026-05-06 21:51 29.99217 -90.25529 11 ft 8 kts 223°
2026-05-06 21:52 29.99210 -90.25604 11 ft 10 kts 272°
2026-05-06 21:52 29.99215 -90.25700 11 ft 13 kts 275°
2026-05-06 21:52 29.99237 -90.25809 11 ft 14 kts 289°
2026-05-06 21:52 29.99321 -90.25862 11 ft 14 kts 334°
2026-05-06 21:53 29.99360 -90.25967 11 ft 14 kts 284°
2026-05-06 21:53 29.99389 -90.26088 11 ft 16 kts 285°
2026-05-06 21:53 29.99421 -90.26224 11 ft 18 kts 285°
2026-05-06 21:53 29.99456 -90.26368 11 ft 18 kts 285°
2026-05-06 21:54 29.99491 -90.26515 11 ft 20 kts 286°
2026-05-06 21:54 29.99530 -90.26677 12 ft 21 kts 285°
2026-05-06 21:54 29.99571 -90.26847 11 ft 22 kts 285°
2026-05-06 21:54 29.99614 -90.27026 12 ft 23 kts 285°
2026-05-06 21:55 29.99657 -90.27204 11 ft 22 kts 285°
2026-05-06 21:55 29.99700 -90.27378 11 ft 22 kts 285°
2026-05-06 21:55 29.99741 -90.27550 11 ft 22 kts 285°
2026-05-06 21:55 29.99783 -90.27725 12 ft 22 kts 285°
2026-05-06 21:56 29.99823 -90.27891 11 ft 20 kts 286°
2026-05-06 21:56 29.99835 -90.28007 11 ft 14 kts 236°
2026-05-06 21:56 29.99742 -90.28046 11 ft 15 kts 196°
2026-05-06 21:56 29.99637 -90.28048 12 ft 16 kts 127°
2026-05-06 21:57 29.99598 -90.27903 11 ft 33 kts 104°
2026-05-06 21:57 29.99460 -90.27335 12 ft 110 kts 104°
2026-05-06 21:57 29.99208 -90.26257 148 ft 157 kts 111°
2026-05-06 21:57 29.98919 -90.25057 788 ft 159 kts 111°
2026-05-06 21:58 29.98638 -90.23836 1522 ft 159 kts 112°
2026-05-06 21:58 29.98359 -90.22609 2060 ft 165 kts 112°
2026-05-06 21:58 29.98049 -90.21270 2420 ft 181 kts 111°
2026-05-06 21:58 29.97668 -90.19822 2794 ft 194 kts 122°
2026-05-06 21:59 29.96736 -90.18684 3094 ft 204 kts 159°
2026-05-06 21:59 29.95326 -90.18417 3526 ft 215 kts 192°
2026-05-06 21:59 29.93946 -90.19169 3987 ft 232 kts 223°
2026-05-06 21:59 29.93011 -90.20764 4495 ft 251 kts 244°
2026-05-06 22:00 29.92362 -90.22633 5288 ft 257 kts 248°
2026-05-06 22:00 29.91756 -90.24545 6213 ft 258 kts 249°
2026-05-06 22:00 29.91149 -90.26465 7116 ft 259 kts 249°
2026-05-06 22:00 29.90535 -90.28397 7982 ft 262 kts 249°
2026-05-06 22:01 29.89911 -90.30362 8857 ft 264 kts 249°
2026-05-06 22:01 29.89285 -90.32328 9711 ft 266 kts 249°
2026-05-06 22:01 29.88641 -90.34339 10513 ft 269 kts 249°
2026-05-06 22:01 29.87981 -90.36391 11127 ft 279 kts 249°
2026-05-06 22:02 29.87295 -90.38516 11710 ft 289 kts 249°
2026-05-06 22:02 29.86593 -90.40687 12415 ft 292 kts 249°
2026-05-06 22:02 29.85885 -90.42857 13131 ft 295 kts 249°
2026-05-06 22:02 29.85163 -90.45071 13859 ft 297 kts 249°
2026-05-06 22:03 29.84428 -90.47298 14556 ft 300 kts 249°
2026-05-06 22:03 29.83688 -90.49509 15261 ft 301 kts 249°
2026-05-06 22:03 29.82919 -90.51779 15934 ft 305 kts 249°
2026-05-06 22:03 29.82143 -90.54033 16599 ft 307 kts 249°
2026-05-06 22:04 29.81343 -90.56322 17285 ft 309 kts 249°
2026-05-06 22:04 29.80533 -90.58611 17971 ft 311 kts 249°
2026-05-06 22:04 29.79728 -90.60886 18638 ft 312 kts 249°
2026-05-06 22:04 29.78919 -90.63191 19297 ft 313 kts 249°
2026-05-06 22:05 29.78102 -90.65527 19949 ft 315 kts 249°
2026-05-06 22:05 29.77285 -90.67863 20590 ft 316 kts 249°
2026-05-06 22:05 29.76467 -90.70190 21212 ft 318 kts 249°
2026-05-06 22:05 29.75642 -90.72550 21831 ft 320 kts 249°
2026-05-06 22:06 29.75002 -90.74999 22426 ft 322 kts 257°
2026-05-06 22:06 29.74592 -90.77523 23041 ft 323 kts 259°
2026-05-06 22:06 29.74206 -90.80047 23613 ft 325 kts 258°
2026-05-06 22:06 29.73807 -90.82606 24158 ft 327 kts 258°
2026-05-06 22:07 29.73393 -90.85193 24704 ft 329 kts 258°
2026-05-06 22:07 29.72978 -90.87759 25230 ft 330 kts 258°
2026-05-06 22:07 29.72553 -90.90352 25716 ft 333 kts 258°
2026-05-06 22:07 29.72125 -90.92945 26199 ft 335 kts 259°
2026-05-06 22:08 29.71685 -90.95599 26677 ft 337 kts 258°
2026-05-06 22:08 29.71242 -90.98257 27153 ft 339 kts 258°
2026-05-06 22:08 29.70801 -91.00893 27624 ft 341 kts 259°
2026-05-06 22:08 29.70351 -91.03575 28077 ft 342 kts 259°
2026-05-06 22:09 29.69904 -91.06239 28514 ft 344 kts 259°
2026-05-06 22:09 29.69452 -91.08931 28932 ft 346 kts 259°
2026-05-06 22:09 29.68990 -91.11660 29352 ft 348 kts 259°
2026-05-06 22:09 29.68529 -91.14398 29738 ft 350 kts 259°
2026-05-06 22:10 29.68066 -91.17127 30080 ft 353 kts 259°
2026-05-06 22:10 29.67595 -91.19913 30442 ft 356 kts 259°
2026-05-06 22:10 29.67122 -91.22697 30795 ft 358 kts 259°
2026-05-06 22:10 29.66644 -91.25523 31145 ft 360 kts 259°
2026-05-06 22:11 29.66163 -91.28349 31465 ft 363 kts 260°
2026-05-06 22:11 29.65677 -91.31204 31757 ft 366 kts 259°
2026-05-06 22:11 29.65189 -91.34071 32077 ft 367 kts 260°
2026-05-06 22:11 29.64699 -91.36933 32374 ft 370 kts 260°
2026-05-06 22:12 29.64200 -91.39854 32656 ft 372 kts 260°
2026-05-06 22:12 29.63702 -91.42767 32931 ft 374 kts 260°
2026-05-06 22:12 29.63201 -91.45689 33238 ft 376 kts 260°
2026-05-06 22:12 29.62693 -91.48649 33547 ft 377 kts 260°
2026-05-06 22:13 29.62193 -91.51571 33853 ft 379 kts 260°
2026-05-06 22:13 29.61683 -91.54527 34216 ft 378 kts 259°
2026-05-06 22:13 29.61172 -91.57497 34553 ft 378 kts 259°
2026-05-06 22:13 29.60660 -91.60465 34853 ft 379 kts 259°
2026-05-06 22:14 29.60150 -91.63422 35142 ft 379 kts 259°
2026-05-06 22:14 29.59635 -91.66388 35392 ft 380 kts 259°
2026-05-06 22:14 29.59121 -91.69362 35655 ft 381 kts 258°
2026-05-06 22:14 29.58602 -91.72344 35875 ft 382 kts 258°
2026-05-06 22:15 29.57557 -91.78353 35891 ft 385 kts 259°
2026-05-06 22:15 29.56509 -91.84358 35897 ft 385 kts 258°
2026-05-06 22:16 29.55456 -91.90372 35898 ft 385 kts 258°
2026-05-06 22:16 29.54406 -91.96359 35893 ft 385 kts 258°
2026-05-06 22:17 29.53347 -92.02385 35888 ft 384 kts 258°
2026-05-06 22:17 29.52289 -92.08379 35886 ft 384 kts 258°
2026-05-06 22:18 29.51232 -92.14360 35886 ft 384 kts 258°
2026-05-06 22:18 29.50172 -92.20343 35886 ft 384 kts 258°
2026-05-06 22:19 29.49107 -92.26341 35887 ft 385 kts 258°
2026-05-06 22:19 29.48041 -92.32326 35887 ft 385 kts 258°
2026-05-06 22:20 29.46971 -92.38355 35881 ft 385 kts 259°
2026-05-06 22:20 29.46232 -92.44424 35883 ft 385 kts 264°
2026-05-06 22:21 29.45984 -92.50529 35883 ft 386 kts 268°
2026-05-06 22:21 29.46181 -92.56651 35879 ft 387 kts 271°
2026-05-06 22:22 29.46460 -92.62817 35876 ft 387 kts 270°
2026-05-06 22:22 29.46742 -92.68944 35879 ft 386 kts 270°
2026-05-06 22:23 29.47023 -92.75078 35876 ft 386 kts 270°
2026-05-06 22:23 29.47301 -92.81196 35873 ft 385 kts 270°
2026-05-06 22:24 29.47579 -92.87344 35872 ft 385 kts 270°
2026-05-06 22:24 29.47853 -92.93459 35876 ft 385 kts 270°
2026-05-06 22:25 29.48133 -92.99587 35880 ft 385 kts 270°
2026-05-06 22:25 29.48386 -93.05698 35879 ft 386 kts 270°
2026-05-06 22:26 29.48630 -93.11794 35449 ft 384 kts 270°
2026-05-06 22:26 29.48752 -93.14848 34913 ft 380 kts 270°
2026-05-06 22:26 29.48871 -93.17855 34270 ft 377 kts 270°
2026-05-06 22:27 29.48987 -93.20818 33578 ft 377 kts 270°
2026-05-06 22:27 29.49105 -93.23799 32965 ft 373 kts 270°
2026-05-06 22:27 29.49224 -93.26784 32551 ft 370 kts 270°
2026-05-06 22:27 29.49340 -93.29698 32099 ft 368 kts 270°
2026-05-06 22:28 29.49456 -93.32600 31640 ft 365 kts 270°
2026-05-06 22:28 29.49568 -93.35468 31169 ft 361 kts 270°
2026-05-06 22:28 29.49682 -93.38351 30690 ft 358 kts 269°
2026-05-06 22:28 29.49790 -93.41157 30233 ft 355 kts 269°
2026-05-06 22:29 29.49899 -93.43980 29762 ft 352 kts 269°
2026-05-06 22:29 29.50004 -93.46757 29290 ft 349 kts 269°
2026-05-06 22:29 29.50110 -93.49528 28823 ft 345 kts 269°
2026-05-06 22:29 29.50211 -93.52234 28367 ft 342 kts 269°
2026-05-06 22:30 29.50313 -93.54945 27903 ft 339 kts 269°
2026-05-06 22:30 29.50414 -93.57647 27439 ft 336 kts 269°
2026-05-06 22:30 29.50512 -93.60304 26988 ft 333 kts 268°
2026-05-06 22:30 29.50608 -93.62919 26547 ft 329 kts 268°
2026-05-06 22:31 29.50702 -93.65520 26108 ft 327 kts 268°
2026-05-06 22:31 29.50796 -93.68127 25672 ft 324 kts 268°
2026-05-06 22:31 29.50890 -93.70674 25245 ft 322 kts 268°
2026-05-06 22:31 29.50984 -93.73236 24798 ft 319 kts 268°
2026-05-06 22:32 29.51073 -93.75758 24353 ft 317 kts 267°
2026-05-06 22:32 29.51163 -93.78257 23898 ft 314 kts 267°
2026-05-06 22:32 29.51251 -93.80756 23437 ft 312 kts 268°
2026-05-06 22:32 29.51336 -93.83217 22994 ft 310 kts 268°
2026-05-06 22:33 29.51422 -93.85658 22551 ft 308 kts 268°
2026-05-06 22:33 29.51509 -93.88119 22102 ft 306 kts 267°
2026-05-06 22:33 29.51592 -93.90545 21656 ft 304 kts 267°
2026-05-06 22:33 29.51673 -93.92941 21216 ft 303 kts 268°
2026-05-06 22:34 29.51756 -93.95355 20780 ft 301 kts 268°
2026-05-06 22:34 29.51839 -93.97723 20402 ft 298 kts 268°
2026-05-06 22:34 29.51921 -94.00096 19958 ft 298 kts 268°
2026-05-06 22:34 29.52003 -94.02457 19492 ft 298 kts 268°
2026-05-06 22:35 29.52085 -94.04808 19035 ft 298 kts 268°
2026-05-06 22:35 29.52166 -94.07198 18570 ft 298 kts 268°
2026-05-06 22:35 29.52246 -94.09566 18132 ft 297 kts 268°
2026-05-06 22:35 29.52326 -94.11925 17685 ft 297 kts 268°
2026-05-06 22:36 29.52406 -94.14283 17240 ft 297 kts 268°
2026-05-06 22:36 29.52484 -94.16626 16796 ft 296 kts 268°
2026-05-06 22:36 29.52563 -94.18990 16354 ft 296 kts 268°
2026-05-06 22:36 29.52641 -94.21332 15910 ft 296 kts 268°
2026-05-06 22:37 29.52719 -94.23702 15456 ft 296 kts 268°
2026-05-06 22:37 29.52797 -94.26061 15058 ft 294 kts 268°
2026-05-06 22:37 29.52958 -94.28338 14906 ft 286 kts 276°
2026-05-06 22:37 29.53560 -94.30492 14695 ft 285 kts 289°
2026-05-06 22:38 29.54556 -94.32473 14287 ft 290 kts 296°
2026-05-06 22:38 29.55671 -94.34398 13883 ft 291 kts 297°
2026-05-06 22:38 29.56799 -94.36319 13480 ft 290 kts 297°
2026-05-06 22:38 29.57919 -94.38230 13093 ft 289 kts 297°
2026-05-06 22:39 29.59036 -94.40143 12713 ft 288 kts 297°
2026-05-06 22:39 29.60152 -94.42059 12329 ft 287 kts 298°
2026-05-06 22:39 29.61256 -94.43958 11947 ft 286 kts 298°
2026-05-06 22:39 29.62350 -94.45842 11568 ft 285 kts 298°
2026-05-06 22:40 29.63456 -94.47749 11186 ft 283 kts 298°
2026-05-06 22:40 29.64539 -94.49614 10809 ft 282 kts 299°
2026-05-06 22:40 29.65611 -94.51463 10444 ft 280 kts 299°
2026-05-06 22:40 29.66697 -94.53323 10091 ft 277 kts 302°
2026-05-06 22:41 29.69549 -94.56254 9984 ft 281 kts 322°
2026-05-06 22:41 29.71140 -94.57551 9915 ft 277 kts 311°
2026-05-06 22:41 29.72245 -94.59336 9804 ft 277 kts 295°
2026-05-06 22:42 29.73147 -94.61307 9686 ft 280 kts 294°
2026-05-06 22:42 29.74050 -94.63292 9563 ft 280 kts 294°
2026-05-06 22:42 29.74974 -94.65256 9440 ft 280 kts 295°
2026-05-06 22:42 29.75918 -94.67202 9331 ft 280 kts 296°
2026-05-06 22:43 29.76889 -94.69163 9219 ft 280 kts 296°
2026-05-06 22:43 29.77863 -94.71107 9094 ft 280 kts 296°
2026-05-06 22:43 29.78832 -94.73033 8972 ft 280 kts 296°
2026-05-06 22:43 29.79816 -94.74974 8808 ft 279 kts 296°
2026-05-06 22:44 29.80789 -94.76891 8625 ft 279 kts 297°
2026-05-06 22:44 29.81771 -94.78826 8390 ft 278 kts 297°
2026-05-06 22:44 29.82745 -94.80746 8077 ft 277 kts 297°
2026-05-06 22:44 29.83708 -94.82641 7699 ft 275 kts 297°
2026-05-06 22:45 29.84661 -94.84518 7359 ft 273 kts 297°
2026-05-06 22:45 29.85625 -94.86417 7004 ft 274 kts 297°
2026-05-06 22:45 29.86584 -94.88304 6633 ft 274 kts 297°
2026-05-06 22:45 29.87538 -94.90185 6266 ft 273 kts 297°
2026-05-06 22:46 29.88500 -94.92081 5894 ft 273 kts 297°
2026-05-06 22:46 29.89454 -94.93966 5520 ft 272 kts 297°
2026-05-06 22:46 29.90398 -94.95831 5173 ft 271 kts 297°
2026-05-06 22:46 29.91340 -94.97694 4816 ft 269 kts 298°
2026-05-06 22:47 29.92285 -94.99559 4491 ft 267 kts 298°
2026-05-06 22:47 29.93206 -95.01379 4255 ft 260 kts 298°
2026-05-06 22:47 29.94102 -95.03152 4018 ft 254 kts 298°
2026-05-06 22:47 29.94987 -95.04900 3774 ft 249 kts 298°
2026-05-06 22:48 29.95854 -95.06619 3541 ft 244 kts 298°
2026-05-06 22:48 29.96703 -95.08299 3320 ft 239 kts 299°
2026-05-06 22:48 29.97524 -95.09924 3088 ft 234 kts 299°
2026-05-06 22:48 29.98328 -95.11516 3000 ft 222 kts 299°
2026-05-06 22:49 29.99005 -95.13033 2974 ft 206 kts 287°
2026-05-06 22:49 29.99280 -95.14571 2996 ft 186 kts 275°
2026-05-06 22:49 29.99356 -95.16023 2791 ft 173 kts 271°
2026-05-06 22:49 29.99372 -95.17357 2548 ft 166 kts 270°
2026-05-06 22:50 29.99368 -95.18684 2324 ft 166 kts 270°
2026-05-06 22:50 29.99362 -95.20029 2105 ft 167 kts 271°
2026-05-06 22:50 29.99357 -95.21349 1889 ft 157 kts 271°
2026-05-06 22:50 29.99353 -95.22557 1676 ft 144 kts 272°
2026-05-06 22:51 29.99352 -95.23644 1489 ft 132 kts 271°
2026-05-06 22:51 29.99351 -95.24708 1339 ft 131 kts 271°
2026-05-06 22:51 29.99350 -95.25749 1191 ft 131 kts 271°
2026-05-06 22:51 29.99349 -95.26798 1037 ft 131 kts 271°
2026-05-06 22:52 29.99348 -95.27847 873 ft 130 kts 270°
2026-05-06 22:52 29.99348 -95.28897 707 ft 130 kts 270°
2026-05-06 22:52 29.99349 -95.29932 559 ft 130 kts 269°
2026-05-06 22:52 29.99346 -95.30981 387 ft 130 kts 269°
2026-05-06 22:53 29.99345 -95.32011 223 ft 130 kts 269°
2026-05-06 22:53 29.99341 -95.33044 101 ft 121 kts 269°
2026-05-06 22:53 29.99344 -95.33807 101 ft 59 kts 271°
2026-05-06 22:53 29.99304 -95.34082 100 ft 24 kts 246°
2026-05-06 22:54 29.99233 -95.34233 101 ft 17 kts 239°
2026-05-06 22:54 29.99155 -95.34336 101 ft 17 kts 191°
2026-05-06 22:54 29.99089 -95.34286 101 ft 13 kts 91°
2026-05-06 22:54 29.99089 -95.34175 100 ft 14 kts 90°
2026-05-06 22:55 29.99088 -95.34051 100 ft 16 kts 91°
2026-05-06 22:55 29.99087 -95.33909 100 ft 18 kts 90°
2026-05-06 22:55 29.99088 -95.33755 100 ft 19 kts 90°
2026-05-06 22:55 29.99088 -95.33593 101 ft 20 kts 90°
2026-05-06 22:56 29.99089 -95.33430 100 ft 20 kts 90°
2026-05-06 22:56 29.99089 -95.33264 99 ft 21 kts 90°
2026-05-06 22:56 29.99088 -95.33091 97 ft 17 kts 90°
2026-05-06 22:56 29.99003 -95.33027 97 ft 17 kts 180°
2026-05-06 22:57 29.98874 -95.33027 97 ft 19 kts 180°
2026-05-06 22:57 29.98735 -95.33027 97 ft 20 kts 180°
2026-05-06 22:57 29.98585 -95.33027 97 ft 21 kts 180°
2026-05-06 22:57 29.98432 -95.33026 97 ft 22 kts 180°
2026-05-06 22:58 29.98306 -95.33059 97 ft 17 kts 243°
2026-05-06 22:58 29.98302 -95.33199 97 ft 18 kts 270°
2026-05-06 22:58 29.98300 -95.33351 98 ft 19 kts 268°
2026-05-06 22:58 29.98301 -95.33507 100 ft 19 kts 269°
2026-05-06 22:59 29.98311 -95.33647 100 ft 11 kts 287°
2026-05-06 22:59 29.98375 -95.33667 100 ft 10 kts 360°
2026-05-06 22:59 29.98425 -95.33633 100 ft 5 kts 84°
2026-05-06 22:59 29.98426 -95.33592 100 ft 1 kts 90°